sat.trackr.live / text

‹ back to catalog

SJ 16-02

NORAD 41634 · 2016-043A

PAYLOAD ACTIVE UNKNOWN

§ Identity

Operator
Country
PRC
Launch date
2016-06-29
Launch site
JSC
Launch vehicle
Mass (kg)
RCS (m²)
9.77

External: N2YO · Heavens-Above · Gunter

§ Orbital elements

Epoch: 2026-09-20T04:30:12.172032Z

Period
96.40 min
Inclination
75.0011°
Eccentricity
0.0007412
Mean motion
14.93752712 rev/d
Perigee alt
581.1 km
Apogee alt
591.4 km
Semi-major
6,964.4 km
B*
4.9519e-5
RAAN
99.1142°
Arg perigee
166.9486°
Mean anomaly
193.1896°
Rev number
55,532

§ Raw data

SJ 16-021 41634U 16043A   26263.18764088  .00000496  00000+0  49519-4 0  99932 41634  75.0011  99.1142 0007412 166.9486 193.1896 14.93752712555322

JSON: /api/v1/satellites/41634 · /tle

For live sub-satellite position, see the globe view (requires WebGL).

§ Visibility from observer

Set your observer location to see the next 7 days of passes ≥ 10°. The values pass through the URL so the page stays shareable.

No JS? Fill the form by hand. The geolocation button needs JavaScript.